TAM3681 SBGL-SBGO

Flight info

Callsign TAM3681
Flight time N/A
Altitude 34000
Route SBGL/33 EDNAM UM409 MIMIP UZ8 DEXED/N0462F350 DCT SIRUL
Aircraft A320/M-SDE2FGHIM1RWXYZ/LB1

Departure

Time N/A
Airport Rio Galeão – Tom Jobim International Airport (SBGL)

Arrival

Time 2026-04-30 02:33
Airport Santa Genoveva International Airport (SBGO)
Time Latitude Longitude Altitude Speed Heading
2026-04-30 01:28 -20.96142 -43.96312 34133 ft 438 kts 326°
2026-04-30 01:28 -20.93537 -43.98000 34133 ft 437 kts 326°
2026-04-30 01:28 -20.88334 -44.01373 34138 ft 438 kts 326°
2026-04-30 01:29 -20.83121 -44.04757 34135 ft 438 kts 326°
2026-04-30 01:29 -20.77913 -44.08138 34134 ft 438 kts 326°
2026-04-30 01:30 -20.72705 -44.11524 34126 ft 438 kts 326°
2026-04-30 01:30 -20.67471 -44.14951 34121 ft 438 kts 326°
2026-04-30 01:31 -20.62268 -44.18349 34122 ft 438 kts 326°
2026-04-30 01:31 -20.57043 -44.21712 34120 ft 439 kts 326°
2026-04-30 01:32 -20.51808 -44.25063 34125 ft 439 kts 326°
2026-04-30 01:32 -20.46565 -44.28426 34116 ft 440 kts 326°
2026-04-30 01:33 -20.41320 -44.31790 34113 ft 440 kts 326°
2026-04-30 01:33 -20.36066 -44.35167 34110 ft 440 kts 326°
2026-04-30 01:34 -20.30826 -44.38546 34109 ft 440 kts 326°
2026-04-30 01:34 -20.25583 -44.41913 34105 ft 440 kts 326°
2026-04-30 01:35 -20.20325 -44.45280 34105 ft 441 kts 326°
2026-04-30 01:35 -20.15076 -44.48648 34104 ft 441 kts 326°
2026-04-30 01:36 -20.09775 -44.52052 34099 ft 442 kts 326°
2026-04-30 01:36 -20.04513 -44.55426 34098 ft 442 kts 326°
2026-04-30 01:37 -19.99247 -44.58793 34097 ft 442 kts 326°
2026-04-30 01:37 -19.93977 -44.62161 34092 ft 442 kts 326°
2026-04-30 01:38 -19.88693 -44.65532 34090 ft 443 kts 326°
2026-04-30 01:38 -19.83418 -44.68903 34086 ft 443 kts 326°
2026-04-30 01:39 -19.78133 -44.72280 34084 ft 443 kts 326°
2026-04-30 01:39 -19.72840 -44.75652 34083 ft 444 kts 326°
2026-04-30 01:40 -19.67507 -44.79048 34083 ft 444 kts 326°
2026-04-30 01:40 -19.62215 -44.82420 34082 ft 444 kts 326°
2026-04-30 01:41 -19.56964 -44.85865 34081 ft 443 kts 320°
2026-04-30 01:41 -19.52812 -44.90585 34074 ft 438 kts 300°
2026-04-30 01:42 -19.50392 -44.96467 34069 ft 436 kts 288°
2026-04-30 01:42 -19.48379 -45.02533 34071 ft 437 kts 289°
2026-04-30 01:43 -19.46349 -45.08595 34066 ft 437 kts 289°
2026-04-30 01:43 -19.44316 -45.14665 34061 ft 437 kts 289°
2026-04-30 01:44 -19.42295 -45.20735 34067 ft 437 kts 289°
2026-04-30 01:44 -19.40268 -45.26807 34064 ft 437 kts 289°
2026-04-30 01:45 -19.38234 -45.32877 34064 ft 437 kts 289°
2026-04-30 01:45 -19.36197 -45.38938 34065 ft 437 kts 289°
2026-04-30 01:46 -19.34156 -45.45005 34064 ft 437 kts 289°
2026-04-30 01:46 -19.32104 -45.51108 34066 ft 437 kts 289°
2026-04-30 01:47 -19.30062 -45.57174 34072 ft 437 kts 289°
2026-04-30 01:47 -19.28015 -45.63244 34074 ft 438 kts 289°
2026-04-30 01:48 -19.25975 -45.69299 34079 ft 438 kts 289°
2026-04-30 01:48 -19.23915 -45.75372 34080 ft 438 kts 289°
2026-04-30 01:49 -19.21862 -45.81436 34086 ft 438 kts 289°
2026-04-30 01:49 -19.19812 -45.87502 34099 ft 438 kts 289°
2026-04-30 01:50 -19.17753 -45.93562 34105 ft 438 kts 289°
2026-04-30 01:50 -19.15691 -45.99630 34107 ft 438 kts 289°
2026-04-30 01:51 -19.13633 -46.05686 34113 ft 438 kts 289°
2026-04-30 01:51 -19.11912 -46.10761 34114 ft 437 kts 289°
2026-04-30 01:52 -19.09506 -46.17834 34114 ft 437 kts 289°
2026-04-30 01:52 -19.07790 -46.22861 34114 ft 437 kts 289°
2026-04-30 01:53 -19.05725 -46.28904 34117 ft 438 kts 289°
2026-04-30 01:53 -19.03653 -46.34958 34118 ft 438 kts 289°
2026-04-30 01:54 -19.01586 -46.41009 34118 ft 437 kts 289°
2026-04-30 01:54 -18.99517 -46.47056 34113 ft 437 kts 289°
2026-04-30 01:55 -18.97449 -46.53100 34110 ft 437 kts 289°
2026-04-30 01:55 -18.95362 -46.59181 34108 ft 437 kts 289°
2026-04-30 01:56 -18.93293 -46.65223 34104 ft 438 kts 289°
2026-04-30 01:56 -18.91322 -46.71308 34109 ft 438 kts 288°
2026-04-30 01:57 -18.89413 -46.77425 34107 ft 439 kts 288°
2026-04-30 01:57 -18.87489 -46.83533 34108 ft 439 kts 288°
2026-04-30 01:58 -18.85545 -46.89643 34109 ft 439 kts 288°
2026-04-30 01:58 -18.83589 -46.95746 34113 ft 439 kts 288°
2026-04-30 01:59 -18.80650 -47.04885 34105 ft 438 kts 288°
2026-04-30 02:00 -18.78698 -47.10977 34100 ft 438 kts 288°
2026-04-30 02:00 -18.76729 -47.17109 34097 ft 438 kts 288°
2026-04-30 02:01 -18.74768 -47.23190 34093 ft 438 kts 288°
2026-04-30 02:01 -18.72812 -47.29284 34088 ft 438 kts 288°
2026-04-30 02:02 -18.70847 -47.35370 34092 ft 439 kts 288°
2026-04-30 02:02 -18.68882 -47.41468 34096 ft 439 kts 288°
2026-04-30 02:03 -18.66917 -47.47555 34096 ft 439 kts 288°
2026-04-30 02:03 -18.64941 -47.53647 34096 ft 439 kts 288°
2026-04-30 02:04 -18.62966 -47.59743 34087 ft 439 kts 289°
2026-04-30 02:04 -18.60992 -47.65827 34086 ft 439 kts 289°
2026-04-30 02:05 -18.59006 -47.71954 34076 ft 439 kts 289°
2026-04-30 02:05 -18.57025 -47.78038 34078 ft 439 kts 289°
2026-04-30 02:06 -18.55043 -47.84127 34068 ft 439 kts 289°
2026-04-30 02:06 -18.53059 -47.90216 34061 ft 439 kts 289°
2026-04-30 02:07 -18.51076 -47.96289 34061 ft 439 kts 289°
2026-04-30 02:07 -18.49086 -48.02356 34059 ft 438 kts 289°
2026-04-30 02:08 -18.47092 -48.08431 34057 ft 438 kts 289°
2026-04-30 02:08 -18.45108 -48.14499 34053 ft 438 kts 289°
2026-04-30 02:09 -18.43087 -48.20551 34045 ft 438 kts 293°
2026-04-30 02:09 -18.41646 -48.23375 34047 ft 439 kts 304°
2026-04-30 02:09 -18.39702 -48.25845 34045 ft 440 kts 315°
2026-04-30 02:09 -18.37313 -48.27867 34040 ft 442 kts 326°
2026-04-30 02:10 -18.34581 -48.29371 34041 ft 445 kts 336°
2026-04-30 02:10 -18.28751 -48.31605 34035 ft 446 kts 338°
2026-04-30 02:11 -18.22871 -48.33845 34034 ft 447 kts 338°
2026-04-30 02:11 -18.17017 -48.36074 34033 ft 448 kts 338°
2026-04-30 02:12 -18.11154 -48.38291 34033 ft 448 kts 338°
2026-04-30 02:12 -18.05272 -48.40512 34031 ft 449 kts 338°
2026-04-30 02:13 -17.99398 -48.42740 34031 ft 449 kts 338°
2026-04-30 02:13 -17.93512 -48.44976 34033 ft 450 kts 338°
2026-04-30 02:14 -17.87622 -48.47222 34035 ft 450 kts 338°
2026-04-30 02:14 -17.81725 -48.49437 34036 ft 451 kts 339°
2026-04-30 02:15 -17.75810 -48.51659 34038 ft 451 kts 339°
2026-04-30 02:15 -17.70024 -48.54164 34042 ft 449 kts 328°
2026-04-30 02:16 -17.64679 -48.57616 34036 ft 449 kts 327°
2026-04-30 02:16 -17.59348 -48.61044 34038 ft 449 kts 327°
2026-04-30 02:17 -17.54022 -48.64459 34038 ft 449 kts 327°
2026-04-30 02:17 -17.48693 -48.67892 34041 ft 449 kts 327°
2026-04-30 02:18 -17.43381 -48.71340 33848 ft 450 kts 327°
2026-04-30 02:18 -17.40687 -48.73076 32632 ft 459 kts 328°
2026-04-30 02:18 -17.37937 -48.74841 31455 ft 469 kts 328°
2026-04-30 02:18 -17.35131 -48.76635 30374 ft 475 kts 328°
2026-04-30 02:19 -17.32307 -48.78435 29088 ft 473 kts 328°
2026-04-30 02:19 -17.29507 -48.80220 27667 ft 469 kts 328°
2026-04-30 02:19 -17.26751 -48.81985 26399 ft 461 kts 329°
2026-04-30 02:19 -17.24036 -48.83725 25230 ft 452 kts 329°
2026-04-30 02:20 -17.21380 -48.85429 24140 ft 444 kts 329°
2026-04-30 02:20 -17.18775 -48.87100 22983 ft 436 kts 329°
2026-04-30 02:20 -17.16213 -48.88742 21772 ft 429 kts 329°
2026-04-30 02:20 -17.13690 -48.90359 20657 ft 422 kts 329°
2026-04-30 02:21 -17.11228 -48.91935 20162 ft 408 kts 329°
2026-04-30 02:21 -17.08796 -48.93491 19687 ft 402 kts 329°
2026-04-30 02:21 -17.06422 -48.95011 19200 ft 398 kts 329°
2026-04-30 02:21 -17.04866 -48.96008 18882 ft 395 kts 329°
2026-04-30 02:22 -17.02532 -48.97502 18374 ft 392 kts 329°
2026-04-30 02:22 -17.00214 -48.98983 17834 ft 389 kts 329°
2026-04-30 02:22 -16.97913 -49.00452 17309 ft 386 kts 329°
2026-04-30 02:22 -16.94871 -49.02396 16623 ft 382 kts 329°
2026-04-30 02:23 -16.93368 -49.03357 16277 ft 381 kts 329°
2026-04-30 02:23 -16.91114 -49.04797 15760 ft 379 kts 329°
2026-04-30 02:23 -16.88862 -49.06234 15230 ft 378 kts 329°
2026-04-30 02:23 -16.86619 -49.07663 14711 ft 377 kts 329°
2026-04-30 02:24 -16.84377 -49.09093 14184 ft 377 kts 329°
2026-04-30 02:24 -16.82185 -49.10642 13619 ft 377 kts 321°
2026-04-30 02:24 -16.80341 -49.12575 13065 ft 375 kts 309°
2026-04-30 02:24 -16.78900 -49.14829 12524 ft 373 kts 300°
2026-04-30 02:25 -16.77598 -49.17166 11976 ft 371 kts 300°
2026-04-30 02:25 -16.76306 -49.19483 11428 ft 369 kts 300°
2026-04-30 02:25 -16.75018 -49.21784 10880 ft 367 kts 300°
2026-04-30 02:25 -16.73745 -49.24050 10685 ft 354 kts 300°
2026-04-30 02:26 -16.72523 -49.26217 10566 ft 340 kts 300°
2026-04-30 02:26 -16.71345 -49.28304 10452 ft 328 kts 299°
2026-04-30 02:26 -16.70208 -49.30319 10340 ft 316 kts 299°
2026-04-30 02:26 -16.69113 -49.32259 10167 ft 307 kts 299°
2026-04-30 02:27 -16.68044 -49.34155 9908 ft 302 kts 299°
2026-04-30 02:27 -16.66977 -49.36049 9418 ft 299 kts 299°
2026-04-30 02:27 -16.65944 -49.37883 8995 ft 289 kts 299°
2026-04-30 02:27 -16.64944 -49.39660 8580 ft 279 kts 299°
2026-04-30 02:28 -16.63781 -49.41231 8120 ft 272 kts 323°
2026-04-30 02:28 -16.62089 -49.41995 7714 ft 263 kts 354°
2026-04-30 02:28 -16.60302 -49.41776 7286 ft 261 kts 25°
2026-04-30 02:28 -16.58713 -49.40866 6882 ft 261 kts 32°
2026-04-30 02:29 -16.57140 -49.39907 6479 ft 263 kts 32°
2026-04-30 02:29 -16.55732 -49.38736 6029 ft 255 kts 58°
2026-04-30 02:29 -16.55220 -49.37059 5649 ft 240 kts 93°
2026-04-30 02:29 -16.55679 -49.35487 5321 ft 220 kts 120°
2026-04-30 02:30 -16.56432 -49.34168 5027 ft 205 kts 120°
2026-04-30 02:30 -16.57121 -49.32948 4747 ft 187 kts 119°
2026-04-30 02:30 -16.57754 -49.31822 4477 ft 174 kts 119°
2026-04-30 02:30 -16.58342 -49.30776 4242 ft 159 kts 118°
2026-04-30 02:31 -16.58876 -49.29826 4015 ft 147 kts 118°
2026-04-30 02:31 -16.59384 -49.28919 3819 ft 143 kts 118°
2026-04-30 02:31 -16.59880 -49.28033 3637 ft 141 kts 118°
2026-04-30 02:31 -16.60372 -49.27153 3442 ft 140 kts 119°
2026-04-30 02:32 -16.60872 -49.26257 3234 ft 142 kts 120°
2026-04-30 02:32 -16.61361 -49.25383 3031 ft 142 kts 121°
2026-04-30 02:32 -16.61867 -49.24480 2799 ft 141 kts 121°
2026-04-30 02:32 -16.62358 -49.23606 2629 ft 140 kts 121°
2026-04-30 02:33 -16.62846 -49.22730 2472 ft 135 kts 121°
2026-04-30 02:33 -16.63271 -49.21973 2448 ft 98 kts 120°
2026-04-30 02:33 -16.63449 -49.21616 2454 ft 28 kts 102°
2026-04-30 02:33 -16.63470 -49.21447 2459 ft 13 kts 91°
2026-04-30 02:34 -16.63438 -49.21403 2462 ft 6 kts 349°
2026-04-30 02:34 -16.63396 -49.21411 2463 ft 6 kts 312°
2026-04-30 02:34 -16.63376 -49.21446 2461 ft 6 kts 301°
2026-04-30 02:34 -16.63342 -49.21508 2456 ft 14 kts 299°
2026-04-30 02:35 -16.63292 -49.21606 2450 ft 15 kts 299°
2026-04-30 02:35 -16.63236 -49.21704 2451 ft 16 kts 303°
2026-04-30 02:35 -16.63176 -49.21801 2444 ft 16 kts 301°
2026-04-30 02:35 -16.63122 -49.21900 2447 ft 15 kts 300°
2026-04-30 02:36 -16.63070 -49.21991 2442 ft 13 kts 301°
2026-04-30 02:36 -16.63001 -49.22014 2446 ft 13 kts 38°
2026-04-30 02:36 -16.62967 -49.21900 2453 ft 17 kts 78°
2026-04-30 02:36 -16.62943 -49.21789 2458 ft 14 kts 77°
2026-04-30 02:37 -16.62923 -49.21699 2462 ft 11 kts 76°
2026-04-30 02:37 -16.62933 -49.21637 2465 ft 8 kts 127°
2026-04-30 02:37 -16.62986 -49.21604 2463 ft 10 kts 154°
2026-04-30 02:37 -16.62984 -49.21550 2465 ft 7 kts 66°
2026-04-30 02:38 -16.62974 -49.21530 2462 ft 1 kts 63°
2026-04-30 02:38 -16.62974 -49.21528 2462 ft 0 kts 63°